QPF
0.00 0.00 0.00 0.00 0.01 0.02 0.03 0.03 0.02 0.01 0.00 0.00 0.00 0.00 0.00 0.01 0.02 0.04 0.01 0.00 0.01 0.02 0.02 0.01 0.00 0.01 0.01 0.01 0.02 0.02 0.02 0.04 0.05 0.02 0.02 0.02 0.01 0.01 0.01 0.01 0.01 0.01 0.02 0.02 0.02 0.02 0.02 0.01 0.01
0.00 0.00 0.00 0.00 0.02 0.03 0.03 0.03 0.03 0.01 0.00 0.00 0.00 0.00 0.00 0.00 0.00 0.01 0.01 0.00 0.00 0.01 0.03 0.01 0.01 0.01 0.01 0.01 0.02 0.01 0.02 0.03 0.04 0.03 0.02 0.01 0.01 0.01 0.01 0.01 0.01 0.01 0.02 0.03 0.02 0.02 0.02 0.02 0.02
0.00 0.00 0.00 0.01 0.02 0.02 0.03 0.04 0.04 0.02 0.01 0.00 0.00 0.00 0.00 0.01 0.01 0.01 0.00 0.00 0.00 0.01 0.01 0.01 0.01 0.01 0.01 0.01 0.02 0.01 0.01 0.02 0.03 0.02 0.01 0.01 0.01 0.01 0.01 0.01 0.01 0.02 0.02 0.02 0.03 0.03 0.04 0.03 0.02
0.00 0.00 0.00 0.01 0.01 0.01 0.01 0.04 0.04 0.01 0.01 0.00 0.00 0.00 0.00 0.01 0.01 0.01 0.00 0.00 0.00 0.01 0.01 0.01 0.01 0.02 0.02 0.01 0.02 0.02 0.02 0.02 0.01 0.01 0.01 0.01 0.02 0.02 0.02 0.03 0.03 0.03 0.02 0.02 0.03 0.03 0.04 0.03 0.02
0.00 0.00 0.01 0.01 0.01 0.00 0.00 0.02 0.05 0.03 0.01 0.01 0.00 0.01 0.00 0.01 0.02 0.01 0.00 0.00 0.01 0.01 0.01 0.00 0.00 0.01 0.02 0.03 0.03 0.02 0.02 0.02 0.02 0.02 0.02 0.02 0.02 0.02 0.03 0.03 0.03 0.03 0.03 0.03 0.03 0.03 0.02 0.02 0.02
0.00 0.00 0.01 0.00 0.00 0.00 0.00 0.00 0.01 0.02 0.01 0.01 0.01 0.03 0.02 0.04 0.04 0.01 0.00 0.00 0.00 0.00 0.00 0.00 0.00 0.01 0.01 0.03 0.04 0.03 0.02 0.02 0.03 0.04 0.03 0.03 0.03 0.02 0.03 0.03 0.03 0.03 0.03 0.03 0.03 0.03 0.03 0.02 0.02
0.00 0.01 0.01 0.00 0.01 0.00 0.00 0.00 0.01 0.02 0.01 0.01 0.01 0.03 0.04 0.04 0.02 0.00 0.00 0.00 0.00 0.01 0.01 0.01 0.01 0.01 0.01 0.02 0.02 0.02 0.02 0.02 0.04 0.04 0.04 0.03 0.03 0.03 0.03 0.03 0.03 0.03 0.03 0.03 0.03 0.03 0.02 0.02 0.01
0.00 0.00 0.00 0.01 0.01 0.01 0.00 0.00 0.00 0.02 0.02 0.01 0.01 0.01 0.03 0.02 0.01 0.00 0.00 0.00 0.01 0.02 0.01 0.01 0.01 0.01 0.01 0.01 0.01 0.02 0.02 0.02 0.03 0.04 0.05 0.06 0.05 0.04 0.04 0.03 0.03 0.03 0.03 0.03 0.03 0.03 0.02 0.02 0.01
0.01 0.00 0.01 0.01 0.01 0.00 0.00 0.00 0.00 0.00 0.01 0.03 0.02 0.01 0.01 0.01 0.02 0.01 0.01 0.02 0.02 0.02 0.02 0.01 0.03 0.03 0.02 0.01 0.02 0.02 0.03 0.03 0.04 0.05 0.06 0.06 0.06 0.06 0.04 0.03 0.03 0.03 0.03 0.03 0.03 0.03 0.03 0.03 0.03
0.02 0.02 0.00 0.00 0.00 0.00 0.00 0.00 0.00 0.00 0.01 0.01 0.02 0.00 0.00 0.00 0.01 0.01 0.01 0.01 0.03 0.03 0.02 0.02 0.05 0.06 0.04 0.02 0.04 0.04 0.04 0.05 0.06 0.06 0.06 0.07 0.09 0.09 0.07 0.06 0.05 0.04 0.03 0.03 0.03 0.03 0.03 0.03 0.03
0.03 0.02 0.00 0.00 0.00 0.00 0.00 0.00 0.00 0.00 0.01 0.01 0.01 0.00 0.00 0.00 0.01 0.02 0.02 0.03 0.03 0.03 0.02 0.02 0.03 0.07 0.11 0.09 0.06 0.05 0.06 0.07 0.08 0.06 0.06 0.08 0.09 0.09 0.07 0.06 0.07 0.05 0.04 0.03 0.03 0.03 0.03 0.04 0.05
0.02 0.01 0.00 0.00 0.00 0.00 0.00 0.00 0.00 0.00 0.01 0.01 0.01 0.01 0.00 0.01 0.01 0.02 0.02 0.03 0.04 0.03 0.02 0.04 0.04 0.04 0.06 0.11 0.13 0.10 0.07 0.07 0.06 0.07 0.07 0.08 0.08 0.09 0.07 0.07 0.07 0.05 0.05 0.05 0.05 0.04 0.04 0.03 0.04
0.00 0.00 0.00 0.00 0.00 0.00 0.01 0.02 0.02 0.01 0.01 0.01 0.01 0.01 0.01 0.01 0.01 0.02 0.03 0.04 0.04 0.03 0.04 0.07 0.09 0.05 0.05 0.11 0.14 0.16 0.15 0.08 0.07 0.08 0.08 0.08 0.08 0.06 0.05 0.04 0.05 0.04 0.04 0.04 0.04 0.03 0.04 0.05 0.05
0.00 0.00 0.01 0.00 0.00 0.00 0.00 0.02 0.04 0.02 0.00 0.01 0.01 0.01 0.01 0.01 0.01 0.02 0.02 0.03 0.04 0.05 0.08 0.10 0.12 0.07 0.05 0.06 0.09 0.11 0.14 0.12 0.10 0.10 0.08 0.08 0.10 0.09 0.07 0.06 0.05 0.04 0.03 0.04 0.04 0.04 0.05 0.05 0.05
0.00 0.00 0.00 0.00 0.00 0.00 0.01 0.01 0.01 0.01 0.00 0.01 0.01 0.00 0.00 0.00 0.01 0.03 0.02 0.03 0.03 0.05 0.07 0.07 0.08 0.10 0.06 0.05 0.06 0.06 0.07 0.09 0.09 0.11 0.10 0.11 0.12 0.15 0.12 0.08 0.07 0.05 0.04 0.05 0.06 0.06 0.06 0.06 0.05
0.00 0.00 0.01 0.01 0.01 0.02 0.02 0.04 0.01 0.01 0.01 0.01 0.01 0.01 0.01 0.01 0.01 0.02 0.02 0.02 0.02 0.04 0.06 0.06 0.06 0.07 0.06 0.05 0.06 0.05 0.05 0.07 0.08 0.10 0.10 0.10 0.11 0.14 0.16 0.12 0.09 0.07 0.07 0.08 0.07 0.07 0.07 0.07 0.05
0.00 0.00 0.01 0.01 0.01 0.02 0.02 0.01 0.01 0.00 0.01 0.01 0.02 0.02 0.01 0.01 0.01 0.02 0.02 0.01 0.02 0.04 0.06 0.06 0.05 0.05 0.06 0.06 0.07 0.07 0.08 0.09 0.10 0.10 0.10 0.11 0.09 0.07 0.09 0.10 0.11 0.10 0.09 0.09 0.09 0.08 0.07 0.06 0.04
0.00 0.01 0.02 0.02 0.01 0.01 0.01 0.00 0.00 0.00 0.00 0.01 0.01 0.01 0.02 0.02 0.02 0.01 0.02 0.02 0.03 0.06 0.08 0.07 0.06 0.08 0.07 0.07 0.07 0.09 0.10 0.08 0.09 0.08 0.08 0.08 0.06 0.06 0.06 0.07 0.07 0.07 0.08 0.10 0.10 0.09 0.08 0.07 0.05
0.01 0.02 0.02 0.03 0.02 0.01 0.01 0.00 0.00 0.01 0.00 0.00 0.00 0.00 0.01 0.02 0.01 0.02 0.02 0.03 0.05 0.06 0.07 0.07 0.09 0.10 0.09 0.09 0.08 0.08 0.10 0.08 0.08 0.08 0.07 0.07 0.06 0.06 0.06 0.07 0.09 0.07 0.08 0.11 0.11 0.10 0.11 0.10 0.07
0.01 0.02 0.02 0.02 0.03 0.02 0.01 0.00 0.00 0.00 0.01 0.01 0.02 0.02 0.02 0.02 0.02 0.04 0.04 0.04 0.05 0.07 0.08 0.10 0.11 0.11 0.09 0.09 0.09 0.09 0.11 0.10 0.11 0.10 0.09 0.07 0.05 0.06 0.06 0.08 0.12 0.12 0.11 0.11 0.11 0.11 0.10 0.08 0.08
0.01 0.03 0.04 0.04 0.03 0.02 0.01 0.01 0.01 0.00 0.01 0.01 0.03 0.05 0.06 0.07 0.10 0.13 0.10 0.05 0.05 0.06 0.07 0.10 0.13 0.14 0.11 0.09 0.08 0.09 0.12 0.13 0.12 0.11 0.09 0.07 0.06 0.05 0.05 0.05 0.06 0.08 0.09 0.09 0.09 0.09 0.09 0.08 0.07
0.00 0.01 0.03 0.03 0.02 0.02 0.02 0.03 0.02 0.01 0.02 0.02 0.03 0.07 0.07 0.05 0.06 0.08 0.08 0.06 0.05 0.03 0.04 0.08 0.10 0.13 0.13 0.10 0.09 0.09 0.10 0.11 0.10 0.09 0.08 0.07 0.06 0.06 0.06 0.06 0.05 0.05 0.06 0.06 0.06 0.07 0.07 0.08 0.07
0.00 0.01 0.01 0.01 0.02 0.02 0.03 0.03 0.02 0.02 0.03 0.02 0.03 0.09 0.10 0.05 0.04 0.06 0.06 0.06 0.05 0.03 0.06 0.10 0.08 0.09 0.12 0.14 0.09 0.07 0.08 0.09 0.09 0.09 0.09 0.06 0.05 0.05 0.05 0.06 0.06 0.07 0.07 0.05 0.05 0.06 0.06 0.07 0.07
0.00 0.00 0.00 0.01 0.03 0.05 0.02 0.02 0.03 0.05 0.04 0.02 0.02 0.02 0.03 0.04 0.05 0.07 0.08 0.07 0.07 0.05 0.06 0.06 0.05 0.06 0.08 0.12 0.13 0.10 0.09 0.09 0.07 0.07 0.06 0.06 0.05 0.05 0.05 0.05 0.07 0.08 0.07 0.06 0.05 0.05 0.04 0.05 0.06
0.00 0.01 0.03 0.04 0.05 0.03 0.01 0.02 0.04 0.04 0.02 0.01 0.01 0.01 0.01 0.03 0.04 0.05 0.07 0.07 0.06 0.05 0.05 0.04 0.04 0.05 0.06 0.08 0.10 0.09 0.09 0.09 0.06 0.06 0.06 0.06 0.05 0.05 0.05 0.06 0.07 0.08 0.08 0.07 0.07 0.07 0.06 0.06 0.07
0.00 0.01 0.03 0.05 0.03 0.02 0.02 0.03 0.03 0.02 0.01 0.01 0.01 0.02 0.03 0.02 0.03 0.04 0.05 0.06 0.06 0.05 0.04 0.04 0.05 0.05 0.05 0.06 0.08 0.08 0.08 0.07 0.06 0.06 0.06 0.05 0.04 0.04 0.05 0.05 0.05 0.05 0.05 0.06 0.09 0.09 0.09 0.10 0.10
0.01 0.01 0.01 0.02 0.01 0.01 0.02 0.03 0.03 0.01 0.01 0.01 0.03 0.03 0.04 0.03 0.03 0.03 0.04 0.06 0.06 0.05 0.04 0.03 0.05 0.05 0.05 0.06 0.06 0.05 0.06 0.07 0.06 0.06 0.05 0.04 0.03 0.04 0.04 0.04 0.04 0.04 0.05 0.06 0.08 0.08 0.09 0.10 0.09
0.00 0.01 0.01 0.02 0.03 0.03 0.02 0.02 0.02 0.01 0.01 0.02 0.04 0.04 0.03 0.03 0.03 0.02 0.03 0.04 0.06 0.06 0.04 0.03 0.04 0.03 0.04 0.05 0.05 0.03 0.04 0.05 0.06 0.05 0.04 0.03 0.03 0.03 0.03 0.03 0.04 0.04 0.05 0.05 0.07 0.08 0.09 0.10 0.09
0.00 0.01 0.01 0.02 0.02 0.03 0.04 0.03 0.02 0.02 0.02 0.02 0.03 0.03 0.02 0.02 0.03 0.02 0.02 0.02 0.04 0.05 0.06 0.04 0.04 0.04 0.04 0.05 0.06 0.04 0.04 0.05 0.06 0.06 0.04 0.04 0.03 0.02 0.02 0.02 0.03 0.03 0.04 0.06 0.08 0.08 0.09 0.09 0.09
0.00 0.00 0.01 0.02 0.03 0.02 0.03 0.03 0.02 0.02 0.02 0.02 0.03 0.03 0.02 0.02 0.04 0.03 0.02 0.02 0.03 0.05 0.06 0.05 0.05 0.05 0.04 0.05 0.05 0.04 0.04 0.04 0.04 0.03 0.03 0.02 0.02 0.02 0.03 0.02 0.02 0.03 0.04 0.05 0.06 0.06 0.07 0.07 0.06
MSLP
1005.80 1006.24 1006.71 1007.05 1007.17 1007.01 1006.61 1006.05 1005.49 1005.05 1004.84 1004.88 1005.12 1005.45 1005.76 1005.93 1005.88 1005.64 1005.27 1004.90 1004.65 1004.63 1004.88 1005.37 1006.03 1006.72 1007.33 1007.78 1008.04 1008.14 1008.16 1008.20 1008.33 1008.62 1009.06 1009.59 1010.15 1010.65 1011.04 1011.29 1011.43 1011.50 1011.56 1011.66 1011.85 1012.10 1012.41 1012.73 1013.00
1005.95 1006.46 1006.93 1007.22 1007.24 1006.97 1006.46 1005.81 1005.16 1004.67 1004.40 1004.38 1004.55 1004.82 1005.07 1005.18 1005.13 1004.91 1004.62 1004.36 1004.26 1004.40 1004.80 1005.42 1006.16 1006.91 1007.54 1007.99 1008.25 1008.35 1008.38 1008.44 1008.61 1008.93 1009.38 1009.92 1010.46 1010.93 1011.28 1011.49 1011.59 1011.63 1011.68 1011.78 1011.96 1012.22 1012.51 1012.81 1013.05
1006.22 1006.75 1007.19 1007.40 1007.32 1006.94 1006.33 1005.62 1004.93 1004.40 1004.10 1004.04 1004.15 1004.34 1004.50 1004.54 1004.43 1004.20 1003.94 1003.76 1003.77 1004.03 1004.56 1005.29 1006.13 1006.94 1007.63 1008.12 1008.41 1008.56 1008.63 1008.73 1008.93 1009.26 1009.70 1010.19 1010.68 1011.08 1011.37 1011.54 1011.62 1011.67 1011.74 1011.87 1012.09 1012.37 1012.68 1012.97 1013.21
1006.55 1007.07 1007.43 1007.53 1007.34 1006.87 1006.20 1005.46 1004.77 1004.26 1003.97 1003.89 1003.95 1004.07 1004.13 1004.08 1003.89 1003.62 1003.36 1003.22 1003.30 1003.65 1004.27 1005.08 1005.99 1006.86 1007.60 1008.15 1008.51 1008.72 1008.86 1009.01 1009.24 1009.57 1009.98 1010.42 1010.83 1011.16 1011.39 1011.52 1011.60 1011.68 1011.80 1012.00 1012.28 1012.61 1012.95 1013.25 1013.49
1006.86 1007.31 1007.56 1007.54 1007.24 1006.70 1006.01 1005.29 1004.66 1004.21 1003.97 1003.91 1003.96 1004.02 1004.00 1003.86 1003.59 1003.27 1002.99 1002.87 1002.98 1003.37 1004.03 1004.88 1005.82 1006.72 1007.49 1008.09 1008.50 1008.78 1009.00 1009.21 1009.48 1009.81 1010.19 1010.58 1010.92 1011.19 1011.37 1011.49 1011.59 1011.72 1011.92 1012.20 1012.55 1012.93 1013.31 1013.62 1013.85
1007.09 1007.42 1007.53 1007.38 1006.98 1006.40 1005.72 1005.07 1004.55 1004.21 1004.06 1004.06 1004.12 1004.14 1004.07 1003.87 1003.55 1003.19 1002.90 1002.78 1002.90 1003.30 1003.96 1004.80 1005.71 1006.59 1007.35 1007.95 1008.40 1008.73 1009.00 1009.28 1009.59 1009.95 1010.32 1010.67 1010.97 1011.20 1011.37 1011.50 1011.63 1011.83 1012.10 1012.46 1012.88 1013.31 1013.70 1014.01 1014.22
1007.20 1007.38 1007.33 1007.04 1006.56 1005.96 1005.34 1004.80 1004.41 1004.22 1004.19 1004.26 1004.36 1004.39 1004.30 1004.07 1003.73 1003.37 1003.09 1002.98 1003.11 1003.50 1004.12 1004.89 1005.72 1006.52 1007.21 1007.76 1008.20 1008.55 1008.87 1009.19 1009.55 1009.94 1010.33 1010.69 1010.98 1011.21 1011.38 1011.54 1011.73 1011.98 1012.32 1012.74 1013.20 1013.65 1014.04 1014.33 1014.51
1007.17 1007.18 1006.97 1006.57 1006.03 1005.45 1004.91 1004.50 1004.26 1004.22 1004.31 1004.48 1004.63 1004.69 1004.61 1004.40 1004.08 1003.76 1003.52 1003.45 1003.59 1003.96 1004.51 1005.18 1005.89 1006.55 1007.11 1007.57 1007.95 1008.28 1008.61 1008.97 1009.38 1009.82 1010.25 1010.64 1010.96 1011.21 1011.42 1011.61 1011.85 1012.15 1012.53 1012.98 1013.46 1013.90 1014.27 1014.51 1014.64
1007.04 1006.88 1006.53 1006.04 1005.47 1004.93 1004.49 1004.22 1004.13 1004.23 1004.44 1004.69 1004.89 1004.99 1004.95 1004.77 1004.52 1004.27 1004.11 1004.09 1004.26 1004.61 1005.09 1005.64 1006.19 1006.68 1007.09 1007.41 1007.69 1007.97 1008.29 1008.67 1009.12 1009.61 1010.10 1010.54 1010.92 1011.22 1011.46 1011.70 1011.97 1012.29 1012.69 1013.14 1013.59 1014.00 1014.32 1014.52 1014.59
1006.84 1006.55 1006.09 1005.54 1004.98 1004.50 1004.17 1004.03 1004.08 1004.29 1004.59 1004.90 1005.15 1005.27 1005.27 1005.16 1004.99 1004.83 1004.76 1004.82 1005.03 1005.36 1005.77 1006.20 1006.60 1006.91 1007.15 1007.32 1007.49 1007.70 1007.98 1008.37 1008.86 1009.39 1009.94 1010.44 1010.87 1011.22 1011.51 1011.78 1012.06 1012.38 1012.76 1013.18 1013.59 1013.95 1014.22 1014.36 1014.39
1006.62 1006.23 1005.70 1005.13 1004.61 1004.21 1003.99 1003.97 1004.14 1004.44 1004.79 1005.13 1005.39 1005.54 1005.57 1005.51 1005.42 1005.36 1005.39 1005.52 1005.77 1006.09 1006.45 1006.78 1007.03 1007.20 1007.28 1007.33 1007.39 1007.53 1007.78 1008.16 1008.66 1009.23 1009.82 1010.37 1010.84 1011.24 1011.55 1011.83 1012.11 1012.41 1012.74 1013.10 1013.46 1013.77 1013.99 1014.10 1014.10
1006.42 1005.97 1005.41 1004.86 1004.40 1004.09 1003.98 1004.06 1004.31 1004.67 1005.05 1005.39 1005.65 1005.80 1005.84 1005.83 1005.81 1005.83 1005.93 1006.12 1006.40 1006.72 1007.03 1007.28 1007.44 1007.50 1007.48 1007.43 1007.42 1007.50 1007.72 1008.09 1008.59 1009.17 1009.78 1010.35 1010.85 1011.26 1011.59 1011.86 1012.10 1012.36 1012.64 1012.94 1013.24 1013.51 1013.70 1013.81 1013.83
1006.25 1005.77 1005.22 1004.71 1004.32 1004.11 1004.10 1004.26 1004.57 1004.95 1005.34 1005.67 1005.91 1006.05 1006.10 1006.12 1006.14 1006.21 1006.36 1006.59 1006.87 1007.18 1007.46 1007.66 1007.76 1007.76 1007.70 1007.62 1007.58 1007.64 1007.84 1008.19 1008.67 1009.24 1009.83 1010.39 1010.88 1011.28 1011.60 1011.84 1012.06 1012.27 1012.49 1012.74 1012.99 1013.23 1013.43 1013.57 1013.64
1006.12 1005.63 1005.11 1004.66 1004.35 1004.22 1004.28 1004.51 1004.85 1005.24 1005.61 1005.93 1006.15 1006.28 1006.35 1006.39 1006.43 1006.53 1006.69 1006.91 1007.18 1007.46 1007.70 1007.88 1007.97 1007.97 1007.92 1007.86 1007.84 1007.92 1008.12 1008.45 1008.89 1009.41 1009.96 1010.47 1010.93 1011.30 1011.58 1011.79 1011.97 1012.14 1012.32 1012.52 1012.75 1012.98 1013.21 1013.41 1013.57
1006.02 1005.54 1005.06 1004.66 1004.42 1004.36 1004.47 1004.73 1005.08 1005.46 1005.82 1006.13 1006.35 1006.50 1006.59 1006.65 1006.72 1006.82 1006.96 1007.15 1007.37 1007.60 1007.80 1007.96 1008.06 1008.10 1008.11 1008.12 1008.17 1008.29 1008.50 1008.81 1009.21 1009.66 1010.13 1010.57 1010.96 1011.29 1011.53 1011.72 1011.87 1012.01 1012.16 1012.34 1012.56 1012.81 1013.07 1013.34 1013.60
1005.94 1005.47 1005.03 1004.69 1004.50 1004.47 1004.61 1004.87 1005.20 1005.57 1005.92 1006.22 1006.47 1006.66 1006.81 1006.92 1007.02 1007.12 1007.24 1007.37 1007.52 1007.67 1007.82 1007.96 1008.08 1008.18 1008.27 1008.37 1008.51 1008.69 1008.92 1009.21 1009.55 1009.92 1010.30 1010.66 1010.98 1011.26 1011.47 1011.65 1011.79 1011.92 1012.06 1012.23 1012.45 1012.71 1013.02 1013.36 1013.70
1005.86 1005.42 1005.02 1004.73 1004.58 1004.57 1004.70 1004.92 1005.21 1005.54 1005.87 1006.20 1006.49 1006.76 1006.99 1007.18 1007.34 1007.46 1007.56 1007.63 1007.70 1007.77 1007.85 1007.95 1008.08 1008.23 1008.41 1008.62 1008.84 1009.09 1009.35 1009.62 1009.90 1010.19 1010.47 1010.75 1011.01 1011.24 1011.44 1011.62 1011.77 1011.91 1012.06 1012.24 1012.46 1012.73 1013.05 1013.43 1013.83
1005.76 1005.36 1005.03 1004.79 1004.67 1004.66 1004.75 1004.91 1005.13 1005.39 1005.70 1006.04 1006.40 1006.77 1007.13 1007.44 1007.69 1007.86 1007.96 1007.99 1007.97 1007.95 1007.95 1008.01 1008.13 1008.32 1008.57 1008.86 1009.17 1009.47 1009.75 1010.01 1010.24 1010.45 1010.66 1010.86 1011.07 1011.28 1011.49 1011.69 1011.88 1012.05 1012.22 1012.40 1012.61 1012.87 1013.18 1013.55 1013.97
1005.58 1005.28 1005.04 1004.88 1004.80 1004.78 1004.81 1004.88 1004.99 1005.17 1005.43 1005.78 1006.21 1006.69 1007.19 1007.66 1008.04 1008.31 1008.43 1008.44 1008.37 1008.27 1008.19 1008.18 1008.28 1008.48 1008.78 1009.13 1009.50 1009.85 1010.16 1010.40 1010.59 1010.74 1010.89 1011.05 1011.24 1011.46 1011.70 1011.94 1012.18 1012.39 1012.58 1012.76 1012.95 1013.16 1013.43 1013.75 1014.13
1005.29 1005.12 1005.03 1004.99 1004.97 1004.95 1004.91 1004.87 1004.86 1004.92 1005.11 1005.44 1005.92 1006.52 1007.18 1007.82 1008.36 1008.75 1008.95 1008.98 1008.88 1008.72 1008.57 1008.50 1008.56 1008.75 1009.07 1009.46 1009.87 1010.26 1010.58 1010.82 1010.99 1011.12 1011.24 1011.38 1011.57 1011.82 1012.10 1012.40 1012.70 1012.95 1013.16 1013.33 1013.48 1013.63 1013.81 1014.05 1014.34
1004.82 1004.85 1004.95 1005.07 1005.14 1005.14 1005.05 1004.90 1004.75 1004.68 1004.77 1005.06 1005.57 1006.27 1007.07 1007.89 1008.61 1009.15 1009.46 1009.55 1009.46 1009.27 1009.08 1008.95 1008.97 1009.14 1009.45 1009.86 1010.30 1010.71 1011.06 1011.31 1011.48 1011.61 1011.73 1011.88 1012.10 1012.39 1012.73 1013.09 1013.43 1013.73 1013.95 1014.10 1014.20 1014.28 1014.36 1014.49 1014.68
1004.15 1004.43 1004.76 1005.07 1005.27 1005.31 1005.19 1004.95 1004.66 1004.46 1004.44 1004.67 1005.18 1005.95 1006.87 1007.85 1008.74 1009.44 1009.89 1010.07 1010.04 1009.86 1009.65 1009.49 1009.48 1009.62 1009.93 1010.34 1010.80 1011.24 1011.61 1011.88 1012.08 1012.22 1012.37 1012.55 1012.81 1013.14 1013.53 1013.95 1014.33 1014.65 1014.88 1015.01 1015.06 1015.06 1015.05 1015.08 1015.15
1003.33 1003.86 1004.44 1004.95 1005.29 1005.41 1005.28 1004.97 1004.58 1004.25 1004.12 1004.28 1004.78 1005.58 1006.60 1007.70 1008.75 1009.61 1010.20 1010.50 1010.54 1010.41 1010.21 1010.06 1010.03 1010.16 1010.46 1010.88 1011.35 1011.81 1012.21 1012.53 1012.76 1012.94 1013.12 1013.34 1013.63 1014.00 1014.43 1014.87 1015.28 1015.62 1015.84 1015.95 1015.96 1015.90 1015.82 1015.77 1015.76
1002.46 1003.19 1003.99 1004.68 1005.17 1005.36 1005.26 1004.91 1004.45 1004.04 1003.82 1003.92 1004.38 1005.20 1006.28 1007.48 1008.65 1009.64 1010.37 1010.79 1010.93 1010.87 1010.73 1010.59 1010.58 1010.72 1011.02 1011.44 1011.93 1012.42 1012.85 1013.20 1013.47 1013.69 1013.90 1014.16 1014.47 1014.86 1015.30 1015.76 1016.17 1016.50 1016.72 1016.81 1016.79 1016.71 1016.59 1016.50 1016.45
1001.66 1002.54 1003.47 1004.30 1004.89 1005.16 1005.08 1004.74 1004.25 1003.79 1003.53 1003.59 1004.03 1004.85 1005.95 1007.22 1008.48 1009.58 1010.41 1010.95 1011.19 1011.23 1011.15 1011.07 1011.09 1011.25 1011.56 1012.00 1012.51 1013.02 1013.48 1013.86 1014.16 1014.41 1014.64 1014.91 1015.23 1015.62 1016.05 1016.49 1016.89 1017.21 1017.41 1017.49 1017.47 1017.38 1017.27 1017.18 1017.13
1001.13 1002.04 1003.01 1003.87 1004.50 1004.80 1004.76 1004.44 1003.97 1003.51 1003.25 1003.30 1003.74 1004.56 1005.68 1006.98 1008.29 1009.46 1010.38 1011.01 1011.35 1011.48 1011.48 1011.47 1011.54 1011.74 1012.08 1012.54 1013.06 1013.58 1014.06 1014.45 1014.77 1015.03 1015.28 1015.54 1015.85 1016.21 1016.61 1017.02 1017.39 1017.68 1017.87 1017.95 1017.94 1017.87 1017.79 1017.73 1017.71
1001.00 1001.81 1002.69 1003.49 1004.07 1004.35 1004.32 1004.03 1003.60 1003.19 1002.97 1003.06 1003.53 1004.36 1005.50 1006.80 1008.13 1009.34 1010.31 1011.01 1011.44 1011.65 1011.75 1011.81 1011.94 1012.19 1012.56 1013.04 1013.57 1014.10 1014.58 1014.97 1015.29 1015.55 1015.78 1016.02 1016.30 1016.62 1016.98 1017.35 1017.68 1017.95 1018.12 1018.21 1018.22 1018.18 1018.13 1018.12 1018.15
1001.34 1001.94 1002.61 1003.23 1003.68 1003.88 1003.82 1003.55 1003.18 1002.85 1002.71 1002.87 1003.39 1004.26 1005.40 1006.71 1008.04 1009.25 1010.25 1011.00 1011.49 1011.79 1011.97 1012.12 1012.32 1012.62 1013.02 1013.52 1014.05 1014.57 1015.04 1015.43 1015.73 1015.96 1016.17 1016.38 1016.62 1016.91 1017.22 1017.54 1017.84 1018.08 1018.25 1018.33 1018.36 1018.35 1018.34 1018.36 1018.44
1002.14 1002.44 1002.81 1003.16 1003.39 1003.44 1003.30 1003.03 1002.72 1002.48 1002.45 1002.71 1003.30 1004.22 1005.38 1006.68 1007.99 1009.20 1010.21 1010.99 1011.54 1011.91 1012.16 1012.40 1012.67 1013.02 1013.47 1013.98 1014.52 1015.03 1015.48 1015.84 1016.11 1016.32 1016.50 1016.68 1016.89 1017.14 1017.42 1017.71 1017.98 1018.20 1018.35 1018.44 1018.47 1018.48 1018.48 1018.53 1018.62
1003.24 1003.20 1003.23 1003.25 1003.21 1003.06 1002.81 1002.51 1002.23 1002.09 1002.17 1002.53 1003.21 1004.18 1005.37 1006.67 1007.97 1009.16 1010.17 1010.97 1011.57 1012.00 1012.34 1012.65 1013.00 1013.42 1013.90 1014.44 1014.97 1015.48 1015.91 1016.24 1016.50 1016.68 1016.84 1017.00 1017.18 1017.41 1017.67 1017.94 1018.20 1018.41 1018.56 1018.64 1018.67 1018.67 1018.66 1018.69 1018.77
Thickness
5822 5826 5828 5823 5806 5795 5799 5816 5829 5832 5833 5840 5842 5838 5825 5817 5807 5794 5825 5839 5834 5826 5817 5811 5807 5803 5800 5797 5794 5791 5788 5786 5783 5781 5779 5776 5774 5772 5771 5769 5768 5766 5765 5763 5762 5761 5759 5758 5757
5824 5830 5826 5815 5792 5787 5802 5823 5825 5830 5836 5842 5840 5836 5826 5820 5826 5823 5828 5833 5831 5824 5816 5810 5804 5800 5797 5794 5791 5788 5785 5783 5780 5778 5776 5774 5772 5770 5768 5767 5765 5763 5762 5761 5760 5758 5757 5756 5754
5823 5829 5815 5806 5794 5796 5804 5825 5825 5834 5840 5836 5830 5831 5823 5816 5823 5824 5828 5832 5828 5820 5813 5806 5801 5797 5794 5791 5788 5785 5782 5780 5777 5775 5773 5771 5769 5767 5765 5764 5762 5761 5760 5758 5757 5756 5755 5753 5752
5822 5822 5815 5804 5801 5818 5825 5829 5830 5826 5831 5833 5828 5819 5821 5827 5826 5828 5831 5830 5824 5817 5811 5803 5799 5795 5791 5788 5785 5782 5779 5777 5774 5772 5770 5768 5766 5764 5763 5761 5760 5758 5757 5756 5755 5754 5752 5751 5750
5823 5811 5798 5796 5807 5826 5835 5836 5830 5819 5822 5827 5825 5811 5808 5824 5829 5830 5828 5826 5820 5815 5810 5801 5796 5792 5788 5785 5782 5779 5776 5774 5771 5769 5767 5765 5763 5761 5760 5758 5757 5756 5754 5753 5752 5751 5750 5749 5748
5810 5808 5791 5791 5808 5828 5836 5836 5830 5821 5822 5824 5820 5808 5803 5820 5820 5823 5824 5822 5820 5814 5807 5798 5792 5789 5785 5782 5779 5776 5773 5771 5768 5766 5764 5762 5760 5759 5757 5756 5754 5753 5752 5751 5749 5748 5748 5747 5746
5802 5798 5794 5801 5809 5820 5829 5835 5826 5819 5816 5821 5824 5807 5801 5811 5818 5822 5821 5820 5817 5812 5804 5796 5790 5785 5782 5778 5775 5773 5770 5768 5765 5763 5761 5760 5758 5756 5755 5753 5752 5750 5749 5748 5747 5746 5745 5745 5744
5816 5801 5795 5805 5809 5816 5830 5830 5828 5820 5816 5827 5825 5804 5796 5807 5816 5818 5816 5814 5811 5807 5802 5795 5790 5784 5779 5775 5772 5769 5767 5765 5762 5760 5759 5757 5755 5754 5752 5751 5749 5747 5746 5745 5744 5744 5744 5743 5743
5818 5792 5788 5804 5810 5817 5828 5821 5824 5828 5819 5819 5819 5812 5810 5813 5814 5809 5806 5805 5803 5800 5797 5793 5788 5783 5779 5775 5771 5767 5764 5762 5760 5758 5756 5755 5754 5752 5751 5750 5747 5745 5744 5743 5742 5742 5741 5741 5741
5808 5789 5798 5817 5823 5821 5823 5819 5818 5815 5808 5807 5808 5811 5814 5812 5806 5801 5798 5795 5793 5792 5792 5790 5787 5782 5778 5775 5769 5765 5763 5760 5758 5757 5755 5753 5753 5752 5750 5748 5745 5744 5742 5741 5740 5740 5739 5739 5740
5806 5798 5810 5819 5825 5823 5818 5817 5820 5809 5800 5804 5802 5803 5806 5804 5800 5797 5795 5793 5791 5789 5787 5785 5782 5779 5774 5770 5766 5764 5762 5759 5757 5755 5753 5752 5751 5750 5748 5745 5743 5741 5740 5739 5739 5739 5738 5738 5739
5806 5809 5814 5817 5822 5817 5814 5814 5810 5808 5805 5814 5812 5808 5803 5798 5796 5794 5791 5790 5789 5785 5783 5780 5777 5773 5769 5767 5764 5760 5759 5757 5756 5753 5751 5749 5748 5747 5745 5743 5741 5740 5739 5739 5738 5738 5738 5737 5737
5803 5809 5817 5820 5820 5818 5813 5808 5805 5805 5813 5815 5811 5805 5800 5796 5794 5793 5791 5788 5785 5780 5776 5775 5770 5767 5765 5763 5761 5758 5756 5754 5752 5751 5748 5746 5745 5743 5741 5740 5739 5738 5738 5737 5736 5736 5736 5735 5735
5806 5810 5811 5815 5815 5815 5806 5804 5802 5801 5810 5807 5802 5798 5797 5793 5790 5786 5784 5781 5779 5775 5772 5770 5764 5762 5759 5758 5756 5755 5752 5750 5749 5747 5744 5742 5741 5739 5738 5736 5735 5735 5735 5734 5733 5733 5732 5732 5732
5809 5800 5801 5809 5813 5812 5806 5790 5795 5805 5807 5800 5798 5796 5793 5790 5787 5782 5779 5776 5774 5771 5769 5765 5761 5757 5754 5753 5751 5750 5748 5746 5745 5743 5741 5739 5737 5736 5734 5733 5732 5731 5732 5731 5730 5730 5729 5728 5728
5798 5788 5782 5801 5808 5809 5794 5774 5795 5806 5801 5793 5793 5791 5787 5784 5783 5781 5779 5774 5771 5767 5762 5760 5758 5752 5749 5747 5746 5745 5744 5743 5741 5739 5737 5735 5734 5733 5731 5730 5728 5728 5728 5727 5726 5725 5723 5722 5722
5782 5774 5779 5794 5808 5804 5792 5781 5795 5805 5798 5790 5788 5786 5782 5777 5776 5776 5774 5771 5767 5763 5757 5753 5751 5747 5745 5742 5740 5740 5740 5738 5736 5735 5733 5731 5730 5729 5728 5727 5725 5725 5724 5723 5722 5721 5719 5717 5717
5773 5777 5780 5785 5804 5803 5790 5787 5795 5800 5796 5790 5787 5783 5778 5771 5769 5770 5769 5766 5763 5759 5754 5749 5746 5743 5741 5738 5735 5735 5735 5733 5732 5730 5729 5727 5726 5725 5724 5723 5722 5721 5720 5718 5717 5716 5715 5714 5713
5787 5783 5782 5791 5808 5798 5788 5786 5790 5794 5792 5787 5783 5779 5774 5768 5768 5767 5764 5762 5758 5753 5748 5744 5741 5739 5736 5733 5730 5728 5727 5728 5728 5727 5726 5724 5723 5722 5721 5720 5718 5717 5715 5713 5712 5712 5710 5709 5710
5785 5779 5781 5791 5803 5796 5786 5785 5792 5793 5790 5787 5781 5776 5771 5765 5763 5760 5757 5754 5751 5747 5743 5740 5737 5734 5732 5730 5728 5727 5725 5725 5725 5724 5722 5721 5719 5718 5718 5716 5715 5714 5712 5709 5708 5707 5704 5704 5705
5782 5779 5779 5779 5788 5793 5781 5774 5780 5787 5790 5787 5783 5778 5773 5765 5757 5754 5751 5748 5746 5743 5739 5737 5734 5731 5729 5728 5727 5725 5721 5720 5720 5719 5718 5718 5717 5715 5714 5712 5711 5710 5709 5706 5704 5703 5701 5698 5700
5773 5789 5786 5780 5772 5769 5773 5751 5769 5779 5778 5778 5776 5774 5769 5766 5759 5753 5748 5745 5742 5740 5737 5733 5730 5728 5727 5725 5723 5720 5716 5714 5715 5716 5716 5716 5715 5713 5711 5710 5708 5707 5705 5704 5702 5701 5699 5696 5693
5783 5795 5788 5780 5770 5765 5770 5755 5762 5778 5767 5769 5771 5770 5768 5764 5759 5752 5749 5745 5742 5739 5735 5730 5727 5725 5723 5721 5720 5716 5715 5714 5714 5714 5713 5713 5712 5711 5709 5707 5706 5704 5703 5701 5699 5697 5696 5694 5691
5794 5786 5781 5778 5768 5744 5760 5753 5752 5769 5767 5767 5769 5769 5766 5762 5759 5753 5749 5744 5740 5737 5733 5729 5724 5722 5721 5718 5717 5715 5712 5711 5710 5709 5709 5709 5708 5708 5706 5705 5703 5701 5700 5699 5697 5694 5693 5690 5688
5784 5764 5745 5739 5738 5742 5767 5756 5755 5775 5779 5773 5767 5765 5763 5760 5755 5750 5745 5740 5736 5733 5730 5726 5722 5719 5718 5716 5714 5712 5709 5708 5706 5706 5706 5705 5705 5704 5703 5703 5700 5698 5697 5695 5693 5691 5689 5687 5685
5772 5765 5738 5721 5727 5745 5758 5747 5759 5777 5780 5775 5769 5764 5759 5753 5752 5746 5742 5738 5734 5731 5728 5724 5720 5716 5715 5713 5711 5709 5708 5706 5705 5704 5703 5703 5702 5702 5702 5700 5698 5696 5694 5692 5690 5688 5686 5684 5683
5766 5765 5771 5752 5748 5741 5746 5755 5759 5771 5768 5766 5761 5757 5752 5748 5747 5743 5739 5735 5732 5729 5726 5723 5719 5714 5712 5710 5708 5706 5705 5704 5702 5702 5701 5700 5699 5699 5698 5696 5694 5692 5691 5689 5686 5684 5683 5681 5679
5778 5771 5758 5740 5723 5721 5735 5745 5742 5747 5752 5755 5752 5749 5747 5745 5743 5740 5736 5732 5729 5727 5723 5721 5717 5713 5711 5708 5706 5704 5703 5701 5700 5698 5697 5696 5695 5694 5693 5691 5690 5688 5687 5685 5683 5681 5680 5677 5675
5765 5761 5754 5747 5740 5722 5717 5732 5757 5751 5751 5747 5748 5748 5745 5741 5739 5737 5733 5730 5727 5724 5720 5716 5713 5710 5707 5705 5703 5701 5699 5698 5696 5694 5693 5692 5691 5690 5688 5687 5685 5684 5682 5681 5679 5677 5676 5673 5670
5767 5759 5752 5731 5728 5734 5725 5729 5760 5754 5752 5746 5744 5744 5742 5739 5737 5734 5731 5727 5723 5720 5717 5713 5710 5707 5704 5702 5700 5697 5696 5694 5692 5690 5689 5688 5687 5685 5684 5683 5681 5680 5678 5677 5675 5672 5671 5668 5665